Regional Weather Roundup
Issued by NWS Green Bay, WI

Home | Current Version | Previous Version | Graphics & Text | Print | Product List | Glossary Off
Versions: 1 2 3 4 5 6 7 8 9 10 11 12 13 14 15 16 17 18 19 20 21 22 23 24 25 26 27 28 29 30 31 32 33 34 35 36 37 38 39 40 41 42 43 44 45 46 47 48 49 50

000
ASUS43 KGRB 020100
RWRGRB

NORTH-CENTRAL AND NORTHEAST WISCONSIN REGIONAL WEATHER ROUNDUP
NATIONAL WEATHER SERVICE GREEN BAY WI
800 PM CDT WED JUL 01 2015

WIZ005-009-010>012-018-019-020200-
NORTH CENTRAL WISCONSIN

CITY           SKY/WX    TMP DP  RH WIND       PRES   REMARKS
IRONWOOD       CLEAR     63  48  59 CALM      29.99S
MANITOWISH WTR NOT AVBL
ARBOR VITAE    NOT AVBL
EAGLE RIVER    NOT AVBL
LAND O LAKES   NOT AVBL
RHINELANDER    CLEAR     64  48  56 CALM      30.02R
PHILLIPS       NOT AVBL
ANTIGO         NOT AVBL
TOMAHAWK       NOT AVBL
MERRILL        NOT AVBL
$$

WIZ013-073-020200-
NORTHEAST WISCONSIN

CITY           SKY/WX    TMP DP  RH WIND       PRES   REMARKS
IRON MOUNTAIN  CLEAR     63  44  50 NE6       30.00R
MARINETTE      CLEAR     63  45  51 E10       29.99R
$$

WIZ017-030-035>037-045-020200-
CENTRAL WISCONSIN

CITY           SKY/WX    TMP DP  RH WIND       PRES   REMARKS
MEDFORD        NOT AVBL
WAUSAU         CLEAR     70  44  39 N3        29.98R
MOSINEE        CLEAR     66  45  45 N5        30.00R
MARSHFIELD     CLEAR     68  45  43 E3        29.99R
WISC RAPIDS    CLEAR     67  49  52 NW5       30.00R
STEVENS POINT  NOT AVBL
WAUPACA        NOT AVBL
SHAWANO        NOT AVBL
CLINTONVILLE   NOT AVBL
$$

WIZ038-039-048-051-020200-
FOX VALLEY

CITY           SKY/WX    TMP DP  RH WIND       PRES   REMARKS
NWS GREEN BAY  CLEAR     65  53  65 NE7       29.99R
APPLETON       PTCLDY    66  46  48 CALM      29.99R
OSHKOSH        CLEAR     65  52  62 SE3       29.99R
FOND DU LAC    CLEAR     64  54  69 E7        30.00R
$$

WIZ022-050-052-020200-
EAST CENTRAL WISCONSIN

CITY           SKY/WX    TMP DP  RH WIND       PRES   REMARKS
STURGEON BAY   CLEAR     57  46  67 E5        30.03R
MANITOWOC      NOT AVBL
SHEBOYGAN      CLEAR     58  51  78 E7        30.01R
$$

LMZ563-521-522-541>543-020200-
LAKESHORE

STATION/POSITION TIME  TEMP    WIND        PRES    VSBY  WAVE
                       AIR SEA DIR/SP/G                  HT/PER
                 (UTC) (F)     (DEG/KT/KT) (MB)    (MI)  (FT/S)
SHEBOYGAN LKSHOR 0000   54      80/  6/  7 1016.1R
KEWAUNEE LKSHORE 0000   56     170/  2/  3 1015.0R
ALGOMA MARINA    0010             CALM       N/A
TWO RIVERS CG    0005   54                 1015.8      6   2
NORTHPORT PIER   0000   62      20/  8/ 12 1015.6R
N MID LAKE BUOY  2350   54 46  300/  4/  4 1015.4S         1
S GREEN BAY BUOY 0000   65 69   70/ 14/ 16 1016.4
STURGEON BAY CG  0015   57     100/  3     1015.8      6   2
CHAMBERS ISLAND  0000   62      40/ 10/ 16 1015.6R
MENOMINEE LKSHOR 0000   63      40/ 14/ 15 1015.9R
$$


USA.gov is the U.S. government's official web portal to all federal, state and local government web resources and services.